DECAYED

STARLINK-1894, 46744 (Decayed)

Orbit data source: Space-Track

STARLINK-1894, 46744 was a payload satellite owned by SpaceX/Seattle (US) in LEO that was launched on Sat, 24 Oct 2020 UTC via an FALCON 9 launch vehicle from the Air Force Eastern Test Range (AFETR). Payload-class satellites include a variety of spacecraft equipped with specific instruments for various scientific and technological missions. These include communications satellites like Starlink; space stations such as the ISS; scientific satellites like the Hubble; Earth observation satellites from companies like Planet Labs, Umbra, and HawkEye 360; GPS; miniature CubeSats for education and research; and military/defense satellites.

Not visible in the next 10 days
Identifier
46744, 2020-074F
Orbit
Decayed
Country
Flag of USUS
Related business
Manufacturer
SpaceX/Seattle
Mission
Decayed Commercial Communications
Bus & Motor
STARLINK, Unknown motor
Mass
260 kg wet, ~248 kg dry
Launch date (UTC)
2020-10-24 (6 years ago)
Launch vehicle
FALCON 9
Launch site
Air Force Eastern Test Range (AFETR)
Object type
Payload
Rocket body
Debris
Shape & HBR
Box + 1 Pan, 10.1 m
Radar Cross Section
13.562 m², Large (>1 m²)

Expand to show TLE details & history
Last TLE update: 2 months ago

TLE from 2 months ago
0 STARLINK-1894
1 46744U 20074F   26109.40536704  .07332882  12278-4  70080-3 0  9990
2 46744  53.0218  68.5855 0002754 240.8120 119.2650 16.37729590303793
Epoch: 2026-04-19T09:43Z
TLE epoch observation values (Epoch: 2026-04-19T09:43:43.712Z)
Latitude
-0°
Longitude
75.14304°
Altitude
173.657 km
Speed
7.803 km/s
True Right ascension
04h 34m 20s
True Declination
0° 00' 00"
Sunlit
Object was in daylight at epoch
Visualization orbit readout
Latitude
Unknown
Longitude
Unknown
Altitude
Unknown
Speed
Unknown
Apparent Right ascension
Unknown
Apparent Declination
Unknown
Sunlit
N/A
Visualization observer readout
Local Sidereal Time
21:35:35
Azimuth
Unknown
Elevation
Unknown
Doppler factor
Unknown
Orbital elements
Apogee altitude
173.944 km
Perigee altitude
170.336 km
Semi-major axis
6,550.277 km
Eccentricity
0.00028
Inclination
53.0218°
RAAN
68.5855°
Arg. of periapsis
240.812°
True anomaly
119.29253°
Mean anomaly
119.265°
Eccentric anomaly
119.27876°
Mean motion
4.09405 °/min
Orbital period
87.93 mins
BSTAR
0.0007008
Loading maneuver chart data...
Computing Atmospheric mass density...

Documentation

Showing up to 5 results
|